User: anonymous   Login
Location: Newark
(13.5236°S, 71.9791°W)
Time: 21:58:55
(UTC+00:00)
Language:

PCSat - Orbit

View from above orbital plane
View from above orbital plane
View from above satellite
View from above satellite

Ground track
Ground track

The orbit data is extracted from the following two-line orbital elements,

1 26931U 01043C   19257.87211400  .00000005  00000-0  33633-4 0  9993
2 26931  67.0508 136.1328 0007450 271.6140  88.4108 14.30552153937580
Epoch (UTC): 14 September 2019 20:55:50
Eccentricity: 0.0007450
inclination: 67.0508°
perigee height: 784 km
apogee height: 795 km
right ascension of ascending node: 136.1328°
argument of perigee: 271.6140°
revolutions per day: 14.30552153
mean anomaly at epoch: 88.4108°
orbit number at epoch: 93758

The dashed part of the orbit path shows where the satellite is in the earth's shadow,  

DLR